カタログに戻る

SL-8 DEB

運用中LEO
NORAD 13261·DEBRIS·🇷🇺 Russia

打ち上げ Jun 6, 1982 から Plesetsk Cosmodrome

Loading…

次のパス (今後24時間)

TLE

最新Source: Space-Track

元期: Sep 14, 2026, 05:08 UTC

1 13261U 82055C   26257.21409737 -.00000028  00000-0  56770-4 0  9998
2 13261  65.8375 341.6438 0020397 290.7554  88.6022 13.72898959218346

AllMySatでSL-8 DEBをリアルタイム追跡

Download on the App Store